Overview Statistics Trail Chart Weather Telemetry Raw packets
 

This is the latest recevied weather packets stored in our database for station/object HOWARD. If no packets are shown the sender has not sent any weather packets the latest 10 day(s).

<< 54 55 56 57 58 59 60 >>
Time Temp. Humidity Pressure Rain* Wind** Luminosity Snow
1787887476 13.33° C 59% 1018.8 hPa 0 mm - - -
1787886876 13.33° C 59% 1018.6 hPa 0 mm - - -
1787886276 13.33° C 59% 1018.5 hPa 0 mm - - -
1787885676 13.33° C 59% 1018.5 hPa 0 mm - - -
1787885076 13.89° C 57% 1018.4 hPa 0 mm - - -
1787884476 13.89° C 55% 1018.4 hPa 0 mm - - -
1787883876 15° C 53% 1018.3 hPa 0 mm - - -
1787883276 15° C 51% 1018.2 hPa 0 mm - - -
1787882676 15° C 49% 1018.1 hPa 0 mm - - -
1787882076 15.56° C 51% 1018.2 hPa 0 mm - - -
1787881476 15° C 52% 1019 hPa 0 mm - - -
1787880876 14.44° C 52% 1019 hPa 0 mm - - -
1787880276 15° C 49% 1018.9 hPa 0 mm - - -
1787879676 15.56° C 50% 1019 hPa 0 mm - - -
1787879076 15.56° C 48% 1019.1 hPa 0 mm - - -
1787878476 16.67° C 44% 1019.1 hPa 0 mm - - -
1787877876 17.78° C 41% 1019.1 hPa 0 mm - - -
1787877276 17.22° C 37% 1019.2 hPa 0 mm - - -
1787876719 17.22° C 40% 1019.3 hPa 0 mm - - -
1787876676 17.22° C 40% 1019.3 hPa 0 mm - - -
1787876213 17.78° C 39% 1019.2 hPa 0 mm - - -
1787876077 17.78° C 39% 1019.2 hPa 0 mm - - -
1787875476 18.33° C 37% 1019.2 hPa 0 mm - - -
1787874876 18.33° C 37% 1019.1 hPa 0 mm - - -
1787874277 18.33° C 38% 1019.2 hPa 0 mm - - -

* Rain latest hour (hover to see other rain measurements)
** Current wind speed in m/s (hover to see current wind gust speed)